• In Hungary
  • List of Countries
  • For 7 days
  • Water Temperature
  • Satellite Maps
  • Weather Map
  • News
  • Weather Widgets
  • user-avatar
    Login

    Hourly Weather Novokotovo

    Today, 26 April, Thursday

    Time Temperature Precipitation Wind Pressure Humidity
    00:00 +4°C° 0 mm 2 mps 736 mmHg 92%
    01:00 +4°C° 0 mm 2 mps 735 mmHg 93%
    02:00 +4°C° 0 mm 2 mps 735 mmHg 94%
    03:00 +4°C° 0 mm 2 mps 735 mmHg 94%
    04:00 +5°C° 0 mm 1 mps 735 mmHg 94%
    05:00 +5°C° 0 mm 1 mps 734 mmHg 94%
    06:00 +6°C° 0 mm 2 mps 734 mmHg 88%
    07:00 +7°C° 0 mm 2 mps 734 mmHg 82%
    08:00 +9°C° 0 mm 2 mps 733 mmHg 76%
    09:00 +9°C° 0.1 mm 3 mps 733 mmHg 74%
    10:00 +10°C° 0.1 mm 3 mps 733 mmHg 73%
    11:00 +11°C° 0.1 mm 4 mps 732 mmHg 71%
    12:00 +10°C° 0.3 mm 3 mps 732 mmHg 74%
    13:00 +10°C° 0.3 mm 3 mps 732 mmHg 76%
    14:00 +10°C° 0.3 mm 3 mps 732 mmHg 79%
    15:00 +8°C° 1.1 mm 4 mps 732 mmHg 82%
    16:00 +8°C° 1.1 mm 4 mps 733 mmHg 85%
    17:00 +7°C° 1.1 mm 5 mps 733 mmHg 87%
    18:00 +7°C° 0.1 mm 5 mps 734 mmHg 87%
    19:00 +6°C° 0.1 mm 5 mps 734 mmHg 87%
    20:00 +6°C° 0.1 mm 5 mps 735 mmHg 87%
    21:00 +5°C° 0 mm 4 mps 736 mmHg 88%
    22:00 +5°C° 0 mm 4 mps 736 mmHg 89%
    23:00 +4°C° 0 mm 4 mps 737 mmHg 91%

    Tomorrow, 27 April, Friday

    Time Temperature Precipitation Wind Pressure Humidity
    00:00 +4°C° 0 mm 4 mps 737 mmHg 92%
    01:00 +3°C° 0 mm 3 mps 738 mmHg 93%
    02:00 +2°C° 0 mm 3 mps 738 mmHg 95%
    03:00 +2°C° 0 mm 3 mps 738 mmHg 95%
    04:00 +2°C° 0 mm 3 mps 739 mmHg 95%
    05:00 +2°C° 0 mm 3 mps 739 mmHg 95%
    06:00 +3°C° 0 mm 3 mps 740 mmHg 91%
    07:00 +4°C° 0 mm 3 mps 740 mmHg 87%
    08:00 +7°C° 0 mm 3 mps 741 mmHg 83%
    09:00 +8°C° 0.2 mm 3 mps 741 mmHg 75%
    10:00 +8°C° 0.2 mm 4 mps 741 mmHg 66%
    11:00 +11°C° 0.2 mm 4 mps 741 mmHg 58%
    12:00 +11°C° 0.3 mm 4 mps 742 mmHg 56%
    13:00 +11°C° 0.3 mm 4 mps 742 mmHg 55%
    14:00 +12°C° 0.3 mm 4 mps 742 mmHg 53%
    15:00 +11°C° 0.1 mm 4 mps 742 mmHg 55%
    16:00 +11°C° 0.1 mm 3 mps 742 mmHg 57%
    17:00 +11°C° 0.1 mm 3 mps 742 mmHg 59%
    18:00 +9°C° 0 mm 2 mps 742 mmHg 66%
    19:00 +8°C° 0 mm 2 mps 743 mmHg 73%
    20:00 +6°C° 0 mm 2 mps 743 mmHg 80%
    21:00 +6°C° 0 mm 2 mps 743 mmHg 83%
    22:00 +5°C° 0 mm 2 mps 743 mmHg 85%
    23:00 +5°C° 0 mm 2 mps 743 mmHg 87%

    Day after tomorrow, 28 April, Saturday

    Time Temperature Precipitation Wind Pressure Humidity
    00:00 +4°C° 0 mm 2 mps 743 mmHg 89%
    01:00 +4°C° 0 mm 2 mps 744 mmHg 91%
    02:00 +3°C° 0 mm 2 mps 744 mmHg 93%
    03:00 +3°C° 0 mm 2 mps 744 mmHg 93%
    04:00 +3°C° 0 mm 2 mps 744 mmHg 93%
    05:00 +3°C° 0 mm 2 mps 744 mmHg 94%
    06:00 +5°C° 0 mm 2 mps 745 mmHg 87%
    07:00 +7°C° 0 mm 2 mps 745 mmHg 80%
    08:00 +9°C° 0 mm 3 mps 745 mmHg 72%
    09:00 +10°C° 0.3 mm 3 mps 745 mmHg 68%
    10:00 +10°C° 0.3 mm 4 mps 746 mmHg 64%
    11:00 +11°C° 0.3 mm 4 mps 746 mmHg 60%
    12:00 +12°C° 0.4 mm 4 mps 746 mmHg 57%
    13:00 +12°C° 0.4 mm 4 mps 746 mmHg 55%
    14:00 +12°C° 0.4 mm 5 mps 746 mmHg 53%
    15:00 +12°C° 0.1 mm 4 mps 746 mmHg 54%
    16:00 +12°C° 0.1 mm 4 mps 746 mmHg 54%
    17:00 +11°C° 0.1 mm 4 mps 746 mmHg 54%
    18:00 +10°C° 0 mm 3 mps 747 mmHg 61%
    19:00 +8°C° 0 mm 2 mps 747 mmHg 67%
    20:00 +7°C° 0 mm 2 mps 747 mmHg 74%
    21:00 +6°C° 0 mm 2 mps 747 mmHg 76%
    22:00 +6°C° 0 mm 2 mps 747 mmHg 78%
    23:00 +5°C° 0 mm 2 mps 748 mmHg 79%

    29 April, Sunday

    Time Temperature Precipitation Wind Pressure Humidity
    00:00 +5°C° 0 mm 2 mps 747 mmHg 80%
    01:00 +5°C° 0 mm 2 mps 747 mmHg 81%
    02:00 +5°C° 0 mm 2 mps 747 mmHg 82%
    03:00 +5°C° 0.2 mm 2 mps 747 mmHg 82%
    04:00 +4°C° 0.2 mm 3 mps 746 mmHg 82%
    05:00 +5°C° 0.2 mm 3 mps 746 mmHg 83%
    06:00 +5°C° 0.5 mm 4 mps 745 mmHg 85%
    07:00 +5°C° 0.5 mm 4 mps 745 mmHg 87%
    08:00 +6°C° 0.5 mm 4 mps 744 mmHg 89%
    09:00 +7°C° 0.1 mm 4 mps 744 mmHg 87%
    10:00 +8°C° 0.1 mm 4 mps 744 mmHg 85%
    11:00 +11°C° 0.1 mm 4 mps 744 mmHg 83%
    12:00 +12°C° 0.1 mm 4 mps 743 mmHg 76%
    13:00 +14°C° 0.1 mm 4 mps 743 mmHg 70%
    14:00 +15°C° 0.1 mm 4 mps 743 mmHg 64%
    15:00 +14°C° 0.1 mm 5 mps 743 mmHg 66%
    16:00 +14°C° 0.1 mm 5 mps 743 mmHg 68%
    17:00 +13°C° 0.1 mm 5 mps 743 mmHg 70%
    18:00 +10°C° 0 mm 5 mps 744 mmHg 74%
    19:00 +8°C° 0 mm 4 mps 744 mmHg 77%
    20:00 +7°C° 0 mm 4 mps 745 mmHg 81%
    21:00 +6°C° 0 mm 4 mps 745 mmHg 82%
    22:00 +6°C° 0 mm 4 mps 745 mmHg 83%
    23:00 +6°C° 0 mm 4 mps 746 mmHg 84%

    30 April, Monday

    Time Temperature Precipitation Wind Pressure Humidity
    00:00 +5°C° 0 mm 4 mps 746 mmHg 85%
    01:00 +5°C° 0 mm 4 mps 746 mmHg 87%
    02:00 +5°C° 0 mm 4 mps 747 mmHg 89%
    03:00 +4°C° 0 mm 4 mps 747 mmHg 89%
    04:00 +4°C° 0 mm 4 mps 747 mmHg 90%
    05:00 +4°C° 0 mm 4 mps 748 mmHg 91%
    06:00 +5°C° 0 mm 4 mps 748 mmHg 83%
    07:00 +7°C° 0 mm 4 mps 749 mmHg 76%
    08:00 +9°C° 0 mm 3 mps 749 mmHg 68%
    09:00 +10°C° 0 mm 3 mps 749 mmHg 62%
    10:00 +12°C° 0 mm 3 mps 749 mmHg 55%
    11:00 +13°C° 0 mm 3 mps 750 mmHg 48%
    12:00 +15°C° 0 mm 2 mps 750 mmHg 46%
    13:00 +15°C° 0 mm 2 mps 750 mmHg 43%
    14:00 +16°C° 0 mm 2 mps 749 mmHg 40%
    15:00 +16°C° 0 mm 1 mps 749 mmHg 41%
    16:00 +16°C° 0 mm 1 mps 749 mmHg 42%
    17:00 +16°C° 0 mm 1 mps 749 mmHg 43%
    18:00 +14°C° 0 mm 1 mps 750 mmHg 49%
    19:00 +12°C° 0 mm 1 mps 750 mmHg 54%
    20:00 +10°C° 0 mm 1 mps 750 mmHg 60%
    21:00 +10°C° 0 mm 1 mps 750 mmHg 62%
    22:00 +9°C° 0 mm 1 mps 750 mmHg 64%
    23:00 +8°C° 0 mm 2 mps 750 mmHg 66%

    1 May, Tuesday

    Time Temperature Precipitation Wind Pressure Humidity
    00:00 +8°C° 0.1 mm 2 mps 750 mmHg 68%
    01:00 +8°C° 0.1 mm 2 mps 749 mmHg 70%
    02:00 +8°C° 0.1 mm 2 mps 749 mmHg 72%
    03:00 +8°C° 0.9 mm 2 mps 749 mmHg 78%
    04:00 +8°C° 0.9 mm 2 mps 749 mmHg 85%
    05:00 +8°C° 0.9 mm 2 mps 749 mmHg 92%
    06:00 +8°C° 0.2 mm 2 mps 748 mmHg 90%
    07:00 +9°C° 0.2 mm 2 mps 748 mmHg 88%
    08:00 +10°C° 0.2 mm 3 mps 748 mmHg 85%
    09:00 +12°C° 0 mm 3 mps 748 mmHg 79%
    10:00 +14°C° 0 mm 3 mps 747 mmHg 73%
    11:00 +17°C° 0 mm 3 mps 747 mmHg 67%
    12:00 +18°C° 0 mm 2 mps 747 mmHg 64%
    13:00 +19°C° 0 mm 2 mps 747 mmHg 61%
    14:00 +21°C° 0 mm 2 mps 746 mmHg 58%
    15:00 +19°C° 0.3 mm 2 mps 746 mmHg 63%
    16:00 +18°C° 0.3 mm 3 mps 746 mmHg 68%
    17:00 +17°C° 0.3 mm 3 mps 745 mmHg 74%
    18:00 +14°C° 0.7 mm 3 mps 746 mmHg 80%
    19:00 +13°C° 0.7 mm 3 mps 746 mmHg 86%
    20:00 +11°C° 0.7 mm 3 mps 746 mmHg 92%
    21:00 +11°C° 0.2 mm 3 mps 746 mmHg 92%
    22:00 +10°C° 0.2 mm 3 mps 746 mmHg 92%
    23:00 +9°C° 0.2 mm 3 mps 747 mmHg 93%
    Show more